[[{"header":{"parameterUnit":"m.s-1","parameterCategory":1,"la1":30.2991,"la2":30.254,"lo1":-89.0895,"lo2":-89.0444,"dy":0.0017,"dx":0.0017,"nx":28,"ny":28,"refTime":"2024-10-04T09:00:00:Z","depth":0,"parameterNumber":2,"parameterNumberName":"U-component_of_WINDS"},"data":[0,0,0,0,0,0,0,0,0,0,0,0,0,0,0,0,0,0,0,0,0,0,0,0,0,0,0,0,0,0,0,0,0,0,0,0,0,0,0,0,0,0,0,0,0,0,0,0,0,0,0,0,0,0,0,0,0,0,-5.1212,-5.1212,0,-5.1213,-5.1213,-5.1213,-5.1058,-5.1054,-5.105,-5.1046,-5.1047,-5.1051,-5.1055,0,0,0,0,0,0,0,0,0,0,0,0,0,-5.1078,-5.1082,-5.1212,-5.1212,-5.1212,-5.1213,-5.1213,-5.1213,-5.1058,-5.1053,-5.1049,-5.1044,-5.1046,-5.1051,-5.1055,0,0,0,0,0,0,0,0,0,0,0,0,0,-5.1114,-5.1083,-5.1212,-5.1135,-5.1128,-5.1213,-5.1213,-5.1213,-5.1059,-5.1053,-5.1047,-5.1042,-5.1045,-5.105,-5.1056,-5.1214,0,0,-5.1074,-5.1076,0,0,0,0,0,0,0,0,-5.1112,-5.1119,-5.1147,-5.1141,-5.1133,-5.1129,-5.1166,-5.1213,-5.1061,-5.1086,-5.1046,-5.1039,-5.108,-5.1082,-5.1096,-5.1214,-5.1214,-5.1074,-5.1078,-5.108,-5.1082,0,0,0,0,0,0,0,-5.111,-5.1118,-5.1212,-5.1147,-5.1139,-5.1101,-5.1099,-5.1174,-5.1117,-5.1083,-5.1072,-5.1074,-5.1075,-5.109,-5.1094,-5.1214,-5.1074,-5.1079,-5.1083,-5.1085,-5.1462,-5.1468,0,0,0,0,0,0,-5.1118,-5.1117,-5.1212,-5.1212,-5.1107,-5.1108,-5.1106,-5.1136,-5.1116,-5.1107,-5.1079,-5.1067,-5.1084,-5.1088,-5.1094,-5.1278,-5.108,-5.1085,-5.1089,-5.1456,-5.1464,-5.1471,0,0,0,0,0,0,-5.1115,-5.1128,-5.1212,-5.1162,-5.1169,-5.1117,-5.1152,-5.114,-5.1155,-5.1113,-5.1102,-5.1106,-5.1079,-5.1086,-5.1185,-5.1276,-5.1088,-5.1093,-5.1448,-5.1458,-5.1467,-5.1647,0,0,0,0,0,0,-5.1112,-5.1128,-5.1187,-5.1164,-5.1173,-5.1304,-5.1158,-5.1144,-5.1165,-5.1149,-5.1135,-5.1127,-5.1075,-5.1177,-5.1191,-5.128,-5.1098,-5.1439,-5.1452,-5.1464,-5.1633,-5.1662,-5.1687,0,0,0,0,0,-5.1108,-5.1238,-5.1191,-5.1204,-5.1246,-5.131,-5.1314,-5.1252,-5.1173,-5.1233,-5.1205,-5.1127,-5.1263,-5.1189,-5.1203,-5.1295,-5.1434,-5.1449,-5.1463,-5.1621,-5.1656,-5.1686,0,0,0,0,0,0,-5.1274,-5.1234,-5.1181,-5.1308,-5.1313,-5.1283,-5.1356,-5.1291,-5.1319,-5.1303,-5.1224,-5.1222,-5.1334,-5.1324,-5.1242,-5.1447,-5.1335,-5.1353,-5.145,-5.1483,-5.151,-5.151,-5.1103,0,0,0,0,0,-5.1325,-5.138,-5.1342,-5.1457,-5.1463,-5.141,-5.1435,-5.1386,-5.1389,-5.139,-5.137,-5.1376,-5.142,-5.1451,-5.1489,-5.163,-5.1625,-5.1701,-5.1728,-5.175,-5.1767,-5.1841,-5.1875,-5.1519,-5.1519,-5.1519,0,0,-5.1432,-5.1417,-5.1456,-5.149,-5.1489,-5.1548,-5.1413,-5.148,-5.1523,-5.14,-5.1493,-5.1479,-5.148,-5.1601,-5.1654,-5.1596,-5.1864,-5.1769,-5.1787,-5.1792,-5.186,-5.1894,-5.1924,-5.1529,-5.1527,-5.1526,0,0,-5.1656,-5.165,-5.1746,-5.1747,-5.1746,-5.171,-5.1733,-5.1713,-5.1699,-5.179,-5.1699,-5.1749,-5.1826,-5.1831,-5.1844,-5.207,-5.1999,-5.2084,-5.2226,-5.2299,-5.2327,-5.2352,-5.2433,-5.2463,-5.2101,-5.2102,-5.2102,0,-5.179,-5.1874,-5.1803,-5.1877,-5.1895,-5.1786,-5.1882,-5.1887,-5.1899,-5.1914,-5.1849,-5.1944,-5.1937,-5.2058,-5.2113,-5.2127,-5.2151,-5.2086,-5.2329,-5.2352,-5.2374,-5.2451,-5.2482,-5.2112,-5.2111,-5.211,-5.2109,0,-5.2038,-5.2098,-5.2175,-5.2189,-5.2215,-5.2301,-5.2243,-5.2278,-5.2227,-5.2197,-5.2292,-5.228,-5.2314,-5.2338,-5.2289,-5.2453,-5.2417,-5.2342,-5.2228,-5.242,-5.2491,-5.2519,-5.2127,-5.2123,-5.212,-5.2118,0,0,-5.2368,-5.2341,-5.2371,-5.2376,-5.2367,-5.2412,-5.2492,-5.2525,-5.2557,-5.2568,-5.2634,-5.2702,-5.2632,-5.2646,-5.2596,-5.2661,-5.2841,-5.2577,-5.2576,-5.2627,-5.3022,-5.308,-5.3115,-5.2794,-5.2799,-5.2803,-5.3022,0,-5.2586,-5.2721,-5.2659,-5.2801,-5.2856,-5.2753,-5.2822,-5.2825,-5.2799,-5.2842,-5.2813,-5.2863,-5.2767,-5.2775,-5.2834,-5.2807,-5.292,-5.279,-5.2855,-5.2858,-5.2859,-5.3151,-5.3213,-5.342,-5.3049,-5.3054,-5.3057,0,-5.2859,-5.2882,-5.3029,-5.301,-5.3031,-5.3095,-5.3119,-5.3161,-5.3162,-5.3138,-5.3155,-5.309,-5.3167,-5.3053,-5.3159,-5.3072,-5.3094,-5.3085,-5.3092,-5.3096,-5.297,-5.3165,-5.3484,-5.3516,-5.31,-5.3096,-5.3093,0,-5.3086,-5.3154,-5.3251,-5.3258,-5.3238,-5.3285,-5.3279,-5.3273,-5.3297,-5.3318,-5.3333,-5.3364,-5.3381,-5.3407,-5.3352,-5.3274,-5.3466,-5.3347,-5.3449,-5.3451,-5.3495,-5.3494,-5.3824,-5.3509,-5.3508,-5.3508,-5.3507,0,-5.3337,-5.3431,-5.3352,-5.3412,-5.3515,-5.3443,-5.3547,-5.3529,-5.3525,-5.358,-5.3492,-5.3545,-5.3469,-5.3516,-5.3473,-5.3568,-5.3576,-5.356,-5.3548,-5.3568,-5.3571,-5.3583,-5.3568,-5.3516,-5.3514,-5.3513,-5.3511,0,-5.3609,-5.3559,-5.3658,-5.3631,-5.3626,-5.3703,-5.368,-5.3734,-5.3702,-5.3772,-5.3785,-5.3735,-5.3785,-5.3733,-5.3779,-5.375,-5.3878,-5.3844,-5.3878,-5.3869,-5.3975,-5.3966,-5.4325,-5.4369,-5.4025,-5.4029,-5.4032,0,-5.3772,-5.3843,-5.3823,-5.3853,-5.3852,-5.3902,-5.3925,-5.3857,-5.3885,-5.389,-5.3944,-5.3986,-5.4016,-5.4101,-5.4069,-5.4104,-5.4071,-5.4194,-5.4076,-5.4094,-5.4074,-5.4071,-5.4078,-5.4219,-5.4223,-5.4227,-5.4229,0,-5.4069,-5.4041,-5.4077,-5.4107,-5.4137,-5.4157,-5.4169,-5.4199,-5.4128,-5.4164,-5.4214,-5.4237,-5.4284,-5.4327,-5.4353,-5.4346,-5.4277,-5.4267,-5.4292,-5.4315,-5.4332,-5.4325,-5.3945,-5.4259,-5.4256,-5.4254,-5.4252,-5.4251,-5.4292,-5.4349,-5.4344,-5.4388,-5.4391,-5.4405,-5.4454,-5.4428,-5.4468,-5.4501,-5.4458,-5.452,-5.4518,-5.4545,-5.4546,-5.4594,-5.4541,-5.4579,-5.4588,-5.4599,-5.4615,-5.4324,-5.4598,-5.4597,-5.4596,-5.4595,-5.4595,0,-5.4584,-5.4575,-5.4617,-5.4637,-5.4672,-5.4602,-5.4613,-5.4647,-5.4702,-5.4706,-5.4737,-5.4794,-5.4836,-5.4807,-5.4842,-5.4886,-5.4855,-5.4898,-5.4894,-5.4894,-5.4659,-5.4634,-5.4922,-5.4922,-5.4922,-5.4922,-5.4922,-5.4922,-5.474,-5.4834,-5.4806,-5.49,-5.489,-5.495,-5.4962,-5.4974,-5.4977,-5.5045,-5.5078,-5.5059,-5.505,-5.5084,-5.5119,-5.5109,-5.5127,-5.5181,-5.5161,-5.4943,-5.491,-5.488,-5.4856,-5.5185,-5.5186,-5.5391,-5.5393,-5.5395]},{"header":{"parameterUnit":"m.s-1","parameterCategory":1,"la1":30.2991,"la2":30.254,"lo1":-89.0895,"lo2":-89.0444,"dy":0.0017,"dx":0.0017,"nx":28,"ny":28,"refTime":"2024-10-04T09:00:00:Z","depth":0,"parameterNumber":3,"parameterNumberName":"V-component_of_WINDS"},"data":[0,0,0,0,0,0,0,0,0,0,0,0,0,0,0,0,0,0,0,0,0,0,0,0,0,0,0,0,0,0,0,0,0,0,0,0,0,0,0,0,0,0,0,0,0,0,0,0,0,0,0,0,0,0,0,0,0,0,-3.2542,-3.2543,0,-3.2556,-3.2557,-3.2557,-3.2515,-3.2513,-3.2512,-3.2511,-3.2525,-3.2527,-3.2528,0,0,0,0,0,0,0,0,0,0,0,0,0,-3.2477,-3.2479,-3.2542,-3.2543,-3.2543,-3.2556,-3.2557,-3.2557,-3.2515,-3.2513,-3.2512,-3.251,-3.2525,-3.2527,-3.2529,0,0,0,0,0,0,0,0,0,0,0,0,0,-3.25,-3.2479,-3.2542,-3.2523,-3.2522,-3.2556,-3.2557,-3.2557,-3.2515,-3.2513,-3.2511,-3.251,-3.2524,-3.2527,-3.2529,-3.2582,0,0,-3.2536,-3.2537,0,0,0,0,0,0,0,0,-3.2499,-3.2502,-3.2526,-3.2525,-3.2523,-3.2532,-3.2539,-3.2565,-3.2516,-3.2518,-3.2511,-3.2509,-3.2529,-3.2531,-3.2538,-3.2583,-3.2584,-3.2536,-3.2538,-3.2539,-3.2539,0,0,0,0,0,0,0,-3.2497,-3.2502,-3.2548,-3.2526,-3.2525,-3.2514,-3.2515,-3.2544,-3.2534,-3.2517,-3.2514,-3.2517,-3.2528,-3.2536,-3.2538,-3.2584,-3.2536,-3.2538,-3.254,-3.2541,-3.267,-3.2672,0,0,0,0,0,0,-3.2498,-3.2501,-3.2547,-3.2548,-3.2506,-3.2516,-3.2518,-3.2531,-3.2534,-3.2532,-3.2518,-3.2515,-3.2533,-3.2535,-3.2538,-3.2599,-3.2539,-3.2541,-3.2542,-3.2668,-3.2671,-3.2673,0,0,0,0,0,0,-3.2497,-3.2503,-3.2547,-3.2524,-3.2528,-3.252,-3.2535,-3.2532,-3.254,-3.2534,-3.2532,-3.2528,-3.2531,-3.2535,-3.2571,-3.2599,-3.2542,-3.2544,-3.2666,-3.2669,-3.2672,-3.2722,0,0,0,0,0,0,-3.2495,-3.2503,-3.2524,-3.2524,-3.253,-3.258,-3.2537,-3.2534,-3.2544,-3.254,-3.2543,-3.2542,-3.253,-3.2568,-3.2573,-3.2601,-3.2546,-3.2663,-3.2667,-3.2671,-3.2717,-3.2726,-3.2733,0,0,0,0,0,-3.2493,-3.2538,-3.2525,-3.2531,-3.2556,-3.2582,-3.2585,-3.257,-3.2547,-3.2567,-3.2563,-3.2542,-3.2595,-3.2572,-3.2578,-3.2607,-3.2662,-3.2666,-3.2671,-3.2714,-3.2724,-3.2733,0,0,0,0,0,0,-3.2541,-3.2538,-3.2523,-3.2569,-3.2576,-3.2575,-3.26,-3.2582,-3.2596,-3.2591,-3.2573,-3.2574,-3.2613,-3.2613,-3.2587,-3.2657,-3.2624,-3.263,-3.2655,-3.2665,-3.2672,-3.2671,-3.2548,0,0,0,0,0,-3.2557,-3.2579,-3.2574,-3.2615,-3.2619,-3.2609,-3.262,-3.2608,-3.2614,-3.2617,-3.2616,-3.2623,-3.264,-3.2653,-3.2669,-3.2717,-3.2716,-3.274,-3.2748,-3.2755,-3.276,-3.2783,-3.2792,-3.2688,-3.2688,-3.2688,0,0,-3.259,-3.2591,-3.2606,-3.2625,-3.2629,-3.2651,-3.2612,-3.2638,-3.2653,-3.2621,-3.2654,-3.2654,-3.266,-3.2701,-3.272,-3.2703,-3.2788,-3.276,-3.2766,-3.2767,-3.2788,-3.2798,-3.2807,-3.2691,-3.269,-3.269,0,0,-3.2661,-3.2665,-3.2698,-3.2702,-3.2708,-3.27,-3.2708,-3.2709,-3.2707,-3.274,-3.2715,-3.2734,-3.2766,-3.2771,-3.2777,-3.2847,-3.2828,-3.2853,-3.2894,-3.2917,-3.2925,-3.2932,-3.2955,-3.2964,-3.2859,-3.2859,-3.2859,0,-3.2701,-3.2734,-3.2717,-3.2744,-3.2752,-3.2723,-3.2755,-3.276,-3.2772,-3.2778,-3.2759,-3.2797,-3.2799,-3.284,-3.2857,-3.2864,-3.2871,-3.2853,-3.2925,-3.2933,-3.2939,-3.2961,-3.297,-3.2862,-3.2861,-3.2861,-3.2861,0,-3.2782,-3.2805,-3.2831,-3.2841,-3.2852,-3.2882,-3.2869,-3.2882,-3.2869,-3.2863,-3.2896,-3.2897,-3.2912,-3.2921,-3.2909,-3.296,-3.2949,-3.2929,-3.2895,-3.2952,-3.2972,-3.298,-3.2866,-3.2865,-3.2864,-3.2863,0,0,-3.2884,-3.2883,-3.2893,-3.2896,-3.2899,-3.2916,-3.2944,-3.2958,-3.2968,-3.2977,-3.2998,-3.3025,-3.3005,-3.3012,-3.3,-3.3021,-3.3073,-3.2997,-3.2996,-3.3009,-3.3127,-3.3141,-3.3152,-3.3061,-3.3062,-3.3063,-3.3126,0,-3.2952,-3.2999,-3.2984,-3.303,-3.305,-3.3022,-3.3045,-3.3049,-3.3044,-3.3059,-3.3054,-3.3072,-3.3046,-3.3049,-3.3068,-3.3063,-3.3096,-3.3058,-3.3079,-3.308,-3.3077,-3.3162,-3.3178,-3.3237,-3.3134,-3.3135,-3.3136,0,-3.3038,-3.3048,-3.3097,-3.3094,-3.3102,-3.3123,-3.3134,-3.3149,-3.3153,-3.3147,-3.3155,-3.3138,-3.3163,-3.313,-3.3165,-3.3139,-3.3147,-3.3145,-3.3147,-3.3147,-3.311,-3.3163,-3.3256,-3.3264,-3.3149,-3.3148,-3.3147,0,-3.3105,-3.3131,-3.3163,-3.3167,-3.3165,-3.318,-3.318,-3.3182,-3.319,-3.32,-3.3205,-3.3217,-3.3224,-3.3233,-3.322,-3.3197,-3.3255,-3.3222,-3.325,-3.3251,-3.3263,-3.3262,-3.3356,-3.3271,-3.3271,-3.327,-3.327,0,-3.3182,-3.3212,-3.3192,-3.3212,-3.3244,-3.3226,-3.3258,-3.3255,-3.3256,-3.3274,-3.3251,-3.3268,-3.3249,-3.3264,-3.3254,-3.3283,-3.3286,-3.3282,-3.3278,-3.3283,-3.3283,-3.3287,-3.3282,-3.3273,-3.3272,-3.3272,-3.3271,0,-3.3262,-3.325,-3.3282,-3.3277,-3.3277,-3.3301,-3.3296,-3.3313,-3.3306,-3.3328,-3.3333,-3.3321,-3.3337,-3.3325,-3.3341,-3.3334,-3.3371,-3.3363,-3.337,-3.3367,-3.3395,-3.3392,-3.3494,-3.3505,-3.3414,-3.3415,-3.3416,0,-3.3311,-3.3333,-3.333,-3.334,-3.3341,-3.3357,-3.3365,-3.3348,-3.3357,-3.3361,-3.3378,-3.3392,-3.3402,-3.3429,-3.3422,-3.3434,-3.3424,-3.3459,-3.3426,-3.3429,-3.3422,-3.3421,-3.3422,-3.3466,-3.3467,-3.3468,-3.3468,0,-3.3399,-3.3391,-3.3403,-3.3413,-3.3423,-3.343,-3.3435,-3.3445,-3.3427,-3.3438,-3.3454,-3.3462,-3.3477,-3.3491,-3.35,-3.3499,-3.348,-3.3479,-3.3486,-3.349,-3.3492,-3.3489,-3.3386,-3.3476,-3.3476,-3.3475,-3.3474,-3.3474,-3.3463,-3.3481,-3.348,-3.3494,-3.3496,-3.3501,-3.3516,-3.3509,-3.3522,-3.3533,-3.3522,-3.354,-3.3541,-3.3551,-3.3553,-3.3567,-3.3552,-3.3563,-3.3565,-3.3568,-3.3571,-3.3491,-3.3569,-3.3568,-3.3568,-3.3568,-3.3568,0,-3.3548,-3.3546,-3.3558,-3.3565,-3.3576,-3.3557,-3.3561,-3.3571,-3.3587,-3.3589,-3.3599,-3.3616,-3.3629,-3.3622,-3.3633,-3.3645,-3.3636,-3.3648,-3.3646,-3.3646,-3.3584,-3.3576,-3.3655,-3.3655,-3.3655,-3.3655,-3.3655,-3.3655,-3.3593,-3.362,-3.3612,-3.3639,-3.3637,-3.3654,-3.3658,-3.3662,-3.3663,-3.3683,-3.3693,-3.3688,-3.3686,-3.3696,-3.3707,-3.3704,-3.3708,-3.3723,-3.3718,-3.3659,-3.3651,-3.3643,-3.3635,-3.3725,-3.3725,-3.3778,-3.3779,-3.3779]}]]